Location: Castellare
(42.4669°N, 9.4728°E)
Time: 19:45:44
(UTC+00:00)

STARLINK-1088 - Pass Details

Date: 17 February 2020
Orbit: 379 x 380 km, 53.0° (Epoch: 05 April)

Event Time Altitude Azimuth Distance (km) Brightness Sun altitude
Exits shadow 03:50:20 15° 119° (ESE) 1,193 5.9 -27.6°
Drops below altitude 10° 03:51:53 10° 91° (E) 1,466 6.7 -27.4°
Enters shadow 04:49:36 -67° 234° (SW) 12,128 10.4 -16.7°
Maximum altitude 05:25:38 60° 326° (NNW) 471 3.1 -10.1°
